This is the latest recevied weather packets stored in our database for station/object KO4LFZ. If no packets are shown the sender has not sent any weather packets the latest 10 day(s).
| Time | Temp. | Humidity | Pressure | Rain* | Wind** | Luminosity | Snow |
|---|---|---|---|---|---|---|---|
| 1778326062 | 12.78° C | 97% | 1008.8 hPa | 0 mm | - | 26 W/m² | - |
| 1778325759 | 12.22° C | 97% | 1008.8 hPa | 0 mm | - | 19 W/m² | - |
| 1778325456 | 12.22° C | 96% | 1008.7 hPa | 0 mm | - | 13 W/m² | - |
| 1778325153 | 12.78° C | 96% | 1008.8 hPa | 0 mm | - | 10 W/m² | - |
| 1778324850 | 12.22° C | 97% | 1008.8 hPa | 0 mm | - | 7 W/m² | - |
| 1778324546 | 12.78° C | 96% | 1008.7 hPa | 0 mm | - | 4 W/m² | - |
| 1778324245 | 12.78° C | 95% | 1008.7 hPa | 0 mm | - | 2 W/m² | - |
| 1778323942 | 12.78° C | 95% | 1008.5 hPa | 0 mm | - | 0 W/m² | - |
| 1778323639 | 12.78° C | 95% | 1008.7 hPa | 0 mm | - | 0 W/m² | - |
| 1778323336 | 13.33° C | 94% | 1008.5 hPa | 0 mm | - | 0 W/m² | - |
| 1778323034 | 13.33° C | 93% | 1008.6 hPa | 0 mm | - | 0 W/m² | - |
| 1778322731 | 13.33° C | 92% | 1008.5 hPa | 0 mm | - | 0 W/m² | - |
| 1778322429 | 13.89° C | 93% | 1008.3 hPa | 0 mm | - | 0 W/m² | - |
| 1778322126 | 13.89° C | 92% | 1008.4 hPa | 0 mm | - | 0 W/m² | - |
| 1778321822 | 13.89° C | 92% | 1008.2 hPa | 0 mm | - | 0 W/m² | - |
| 1778321519 | 13.89° C | 92% | 1008.1 hPa | 0 mm | - | 0 W/m² | - |
| 1778321216 | 13.89° C | 92% | 1008.1 hPa | 0 mm | - | 0 W/m² | - |
| 1778320913 | 13.89° C | 91% | 1008.1 hPa | 0 mm | - | 0 W/m² | - |
| 1778320610 | 13.89° C | 91% | 1007.8 hPa | 0 mm | - | 0 W/m² | - |
| 1778320307 | 13.89° C | 91% | 1007.7 hPa | 0 mm | - | 0 W/m² | - |
| 1778320003 | 14.44° C | 91% | 1008 hPa | 0 mm | - | 0 W/m² | - |
| 1778319700 | 14.44° C | 90% | 1008 hPa | 0 mm | - | 0 W/m² | - |
| 1778319399 | 14.44° C | 91% | 1008.1 hPa | 0 mm | - | 0 W/m² | - |
| 1778319096 | 14.44° C | 91% | 1008.1 hPa | 0 mm | - | 0 W/m² | - |
| 1778318794 | 13.89° C | 91% | 1008.4 hPa | 0 mm | - | 0 W/m² | - |
* Rain latest hour (hover to see other rain measurements)
** Current wind speed in m/s (hover to see current wind gust speed)